GW6803 Weather Reports


time (UTC)temp
C
wind
direction
speed
KPH
gust
KPH
rain 1hr
cm
rain 24hr
cm
rain mn
cm
humidity
%
barometer
mb
20260503072550 25 276 1.6 1.6 0.00 0.00 0.00 78 1013.9
20260503072048 25 341 3.2 3.2 0.00 0.00 0.00 76 1013.9
20260503071544 25 338 3.2 3.2 0.00 0.00 0.00 75 1013.5
20260503071041 25 328 3.2 3.2 0.00 0.00 0.00 75 1013.5
20260503070537 25 239 0.0 1.6 0.00 0.00 0.00 75 1013.4
20260503054957 25 239 0.0 0.0 0.00 0.00 0.00 78 1013.7
20260503054453 25 239 0.0 0.0 0.00 0.00 0.00 78 1013.6
20260503053950 25 239 0.0 0.0 0.00 0.00 0.00 79 1013.5
20260503053448 25 239 0.0 0.0 0.00 0.00 0.00 79 1013.4
20260503052945 25 240 0.0 0.0 0.00 0.00 0.00 79 1014.0
20260503052443 25 219 0.0 0.0 0.00 0.00 0.00 79 1014.4
20260503051938 25 228 1.6 1.6 0.00 0.00 0.00 79 1014.6
20260503051434 25 227 0.0 0.0 0.00 0.00 0.00 79 1014.3
20260503050932 25 228 0.0 0.0 0.00 0.00 0.00 79 1014.6
20260503050427 25 228 0.0 0.0 0.00 0.00 0.00 79 1014.8
20260503045926 25 233 0.0 0.0 0.00 0.00 0.00 78 1014.5
20260503045423 25 238 0.0 0.0 0.00 0.00 0.00 78 1014.7
20260503044919 25 233 0.0 0.0 0.00 0.00 0.00 78 1014.8
20260503044416 25 189 1.6 1.6 0.00 0.00 0.00 79 1014.7
20260503043914 25 179 1.6 1.6 0.00 0.00 0.00 79 1014.7
20260503043410 25 179 0.0 0.0 0.00 0.00 0.00 79 1014.7
20260503042907 25 179 1.6 1.6 0.00 0.00 0.00 79 1014.6
20260503042403 25 178 1.6 1.6 0.00 0.00 0.00 80 1014.6
20260503041859 25 178 0.0 0.0 0.00 0.00 0.00 80 1014.8
20260503041357 25 164 1.6 1.6 0.00 0.00 0.00 81 1014.6
20260503040854 26 178 1.6 1.6 0.00 0.00 0.00 79 1014.7
20260503040352 26 222 0.0 0.0 0.00 0.00 0.00 77 1014.4
20260503035848 26 235 0.0 0.0 0.00 0.00 0.00 75 1014.5
20260503035345 26 235 0.0 0.0 0.00 0.00 0.00 75 1014.5
20260503034842 26 235 3.2 3.2 0.00 0.00 0.00 74 1014.5
20260503034340 26 226 0.0 1.6 0.00 0.00 0.00 74 1014.6
20260503033837 26 226 0.0 0.0 0.00 0.00 0.00 74 1014.3
20260503033335 26 224 1.6 0.0 0.00 0.00 0.00 73 1014.3
20260503032832 26 224 0.0 0.0 0.00 0.00 0.00 73 1014.1
20260503032331 26 213 0.0 0.0 0.00 0.00 0.00 72 1014.0
20260503031828 26 213 0.0 0.0 0.00 0.00 0.00 72 1014.1
20260503031326 26 213 1.6 0.0 0.00 0.00 0.00 72 1014.1
20260503030822 26 213 0.0 0.0 0.00 0.00 0.00 71 1014.0
20260503030319 26 212 1.6 1.6 0.00 0.00 0.00 71 1014.2
20260503025815 26 257 0.0 0.0 0.00 0.00 0.00 70 1014.2
20260503025313 26 258 1.6 1.6 0.00 0.00 0.00 70 1014.3
20260503024809 27 264 0.0 0.0 0.00 0.00 0.00 69 1014.0
20260503024306 27 264 0.0 0.0 0.00 0.00 0.00 69 1013.9
20260503023803 27 210 1.6 1.6 0.00 0.00 0.00 68 1014.1
20260503023300 27 222 0.0 0.0 0.00 0.00 0.00 68 1014.2
20260503022756 27 203 1.6 1.6 0.00 0.00 0.00 67 1014.2
20260503022257 27 240 1.6 3.2 0.00 0.00 0.00 67 1014.0
20260503021754 27 193 1.6 1.6 0.00 0.00 0.00 66 1013.9
20260503021249 27 222 1.6 1.6 0.00 0.00 0.00 66 1013.7
20260503020748 27 205 1.6 1.6 0.00 0.00 0.00 65 1014.0
20260503020245 27 243 1.6 1.6 0.00 0.00 0.00 65 1014.0
20260503015741 27 197 1.6 1.6 0.00 0.00 0.00 64 1014.0
20260503015238 27 227 4.8 4.8 0.00 0.00 0.00 64 1013.8
20260503014734 27 229 3.2 3.2 0.00 0.00 0.00 63 1013.8
20260503014232 27 204 0.0 1.6 0.00 0.00 0.00 63 1013.7
20260503013729 27 228 3.2 3.2 0.00 0.00 0.00 62 1013.7
20260503013227 28 236 0.0 1.6 0.00 0.00 0.00 61 1013.4
20260503012724 28 237 4.8 6.4 0.00 0.00 0.00 61 1013.6
20260503012221 28 168 0.0 0.0 0.00 0.00 0.00 60 1013.6
20260503011717 28 217 3.2 4.8 0.00 0.00 0.00 59 1013.3
20260503011215 28 244 1.6 1.6 0.00 0.00 0.00 58 1013.3
20260503010710 28 208 1.6 1.6 0.00 0.00 0.00 57 1013.2
20260503010208 28 238 1.6 1.6 0.00 0.00 0.00 56 1013.2
20260503005705 28 268 3.2 3.2 0.00 0.00 0.00 55 1013.2
20260503005202 28 202 1.6 1.6 0.00 0.00 0.00 54 1013.1
20260503004658 29 229 1.6 1.6 0.00 0.00 0.00 54 1013.0
20260503004157 29 180 1.6 1.6 0.00 0.00 0.00 53 1012.9
20260503003654 29 236 3.2 3.2 0.00 0.00 0.00 52 1012.7
20260503003150 29 237 1.6 1.6 0.00 0.00 0.00 51 1012.7
20260503002647 30 236 1.6 1.6 0.00 0.00 0.00 50 1012.9
20260503002144 30 230 1.6 1.6 0.00 0.00 0.00 50 1012.6
20260503001640 30 263 3.2 3.2 0.00 0.00 0.00 49 1012.7
20260503001137 30 210 0.0 1.6 0.00 0.00 0.00 48 1012.6
20260503000635 30 244 1.6 1.6 0.00 0.00 0.00 48 1012.4
20260503000132 30 221 0.0 0.0 0.00 0.00 0.00 46 1012.5
20260502235628 30 234 3.2 3.2 0.00 0.00 0.00 45 1012.4
20260502235127 31 245 1.6 1.6 0.00 0.00 0.00 44 1012.3
20260502234622 31 251 3.2 4.8 0.00 0.00 0.00 44 1012.2
20260502234120 31 230 3.2 3.2 0.00 0.00 0.00 43 1012.1
20260502233615 31 240 3.2 3.2 0.00 0.00 0.00 42 1011.8
20260502233112 31 225 4.8 4.8 0.00 0.00 0.00 42 1011.9
20260502232608 31 205 1.6 1.6 0.00 0.00 0.00 41 1011.9
20260502232106 31 214 1.6 1.6 0.00 0.00 0.00 41 1011.5
20260502231602 31 214 1.6 1.6 0.00 0.00 0.00 40 1011.6
20260502231101 31 251 0.0 0.0 0.00 0.00 0.00 40 1011.6
20260502230558 31 199 1.6 1.6 0.00 0.00 0.00 40 1011.4
20260502230057 32 179 0.0 0.0 0.00 0.00 0.00 39 1011.4
20260502225552 32 241 0.0 0.0 0.00 0.00 0.00 39 1011.3
20260502225050 32 184 1.6 1.6 0.00 0.00 0.00 39 1011.2
20260502224545 32 256 1.6 1.6 0.00 0.00 0.00 38 1011.2
20260502224043 32 268 1.6 1.6 0.00 0.00 0.00 38 1011.2
20260502223540 32 273 3.2 3.2 0.00 0.00 0.00 38 1011.0
20260502223039 32 121 1.6 1.6 0.00 0.00 0.00 38 1011.1
20260502222535 33 178 1.6 1.6 0.00 0.00 0.00 37 1011.0
20260502222032 33 178 3.2 3.2 0.00 0.00 0.00 36 1011.0
20260502221527 33 265 3.2 3.2 0.00 0.00 0.00 36 1011.0
20260502221025 33 223 1.6 1.6 0.00 0.00 0.00 37 1011.0
20260502220520 33 276 3.2 4.8 0.00 0.00 0.00 36 1011.0
20260502220017 33 265 6.4 6.4 0.00 0.00 0.00 36 1011.0
20260502215515 33 266 1.6 3.2 0.00 0.00 0.00 36 1010.9
20260502215011 33 250 1.6 3.2 0.00 0.00 0.00 35 1011.0
20260502214508 33 214 3.2 3.2 0.00 0.00 0.00 35 1010.7
20260502214005 33 260 3.2 3.2 0.00 0.00 0.00 36 1010.9
20260502213502 34 273 4.8 3.2 0.00 0.00 0.00 35 1010.6
20260502213000 34 265 1.6 1.6 0.00 0.00 0.00 35 1011.0
20260502212459 34 296 3.2 3.2 0.00 0.00 0.00 34 1010.7
20260502211956 34 249 3.2 3.2 0.00 0.00 0.00 35 1010.7
20260502211451 34 243 4.8 4.8 0.00 0.00 0.00 35 1010.7
20260502210949 34 258 3.2 3.2 0.00 0.00 0.00 36 1010.7
20260502210446 35 276 3.2 3.2 0.00 0.00 0.00 36 1010.7
20260502205943 35 205 1.6 1.6 0.00 0.00 0.00 36 1010.7
20260502205439 34 175 3.2 3.2 0.00 0.00 0.00 38 1010.5
20260502204937 34 260 3.2 3.2 0.00 0.00 0.00 36 1010.7
20260502204433 34 177 1.6 3.2 0.00 0.00 0.00 36 1010.3
20260502203931 35 202 1.6 3.2 0.00 0.00 0.00 36 1010.5
20260502203428 35 270 3.2 3.2 0.00 0.00 0.00 36 1010.7
20260502202924 35 52 0.0 0.0 0.00 0.00 0.00 37 1010.7
20260502202421 34 131 0.0 1.6 0.00 0.00 0.00 35 1010.6
20260502201919 35 247 3.2 4.8 0.00 0.00 0.00 35 1010.5
20260502201415 35 219 4.8 6.4 0.00 0.00 0.00 36 1010.6
20260502200912 35 249 1.6 3.2 0.00 0.00 0.00 37 1010.7
20260502200407 34 220 3.2 3.2 0.00 0.00 0.00 37 1010.8
20260502195906 34 255 6.4 9.7 0.00 0.00 0.00 37 1011.0
20260502195403 35 223 3.2 3.2 0.00 0.00 0.00 37 1011.2
20260502194859 35 193 3.2 3.2 0.00 0.00 0.00 37 1010.8
20260502194356 34 185 1.6 1.6 0.00 0.00 0.00 38 1010.8
20260502193852 35 272 4.8 6.4 0.00 0.00 0.00 37 1010.8
20260502193349 34 263 3.2 3.2 0.00 0.00 0.00 38 1011.1
20260502192844 34 139 3.2 3.2 0.00 0.00 0.00 40 1010.9
20260502192342 34 214 3.2 3.2 0.00 0.00 0.00 40 1011.1
20260502191838 34 294 3.2 3.2 0.00 0.00 0.00 40 1011.0
20260502191337 35 238 4.8 4.8 0.00 0.00 0.00 40 1011.0
20260502190833 33 120 1.6 1.6 0.00 0.00 0.00 44 1011.0
20260502190331 34 274 1.6 3.2 0.00 0.00 0.00 41 1011.1
20260502185826 34 262 6.4 9.7 0.00 0.00 0.00 41 1011.2
20260502185322 34 282 4.8 4.8 0.00 0.00 0.00 41 1011.4
20260502184820 35 273 4.8 4.8 0.00 0.00 0.00 39 1011.3
20260502184315 35 195 1.6 3.2 0.00 0.00 0.00 41 1011.1
20260502183812 35 187 3.2 3.2 0.00 0.00 0.00 42 1011.3
20260502183308 35 231 3.2 4.8 0.00 0.00 0.00 39 1011.5
20260502182803 35 268 3.2 3.2 0.00 0.00 0.00 38 1011.3
20260502182259 35 158 1.6 3.2 0.00 0.00 0.00 40 1011.3
20260502181755 35 243 4.8 4.8 0.00 0.00 0.00 41 1011.3
20260502181255 35 107 1.6 1.6 0.00 0.00 0.00 42 1011.4
20260502180752 35 174 3.2 3.2 0.00 0.00 0.00 43 1011.6
20260502180249 35 109 3.2 6.4 0.00 0.00 0.00 43 1011.6
20260502170225 33 242 3.2 3.2 0.00 0.00 0.00 52 1011.9
20260502164213 32 85 1.6 1.6 0.00 0.00 0.00 55 1012.2
20260502163708 32 128 1.6 1.6 0.00 0.00 0.00 55 1012.3
20260502163205 32 127 1.6 1.6 0.00 0.00 0.00 56 1012.3
20260502162702 32 123 1.6 1.6 0.00 0.00 0.00 59 1012.3
20260502162158 32 106 1.6 3.2 0.00 0.00 0.00 54 1012.4
20260502161656 32 199 1.6 1.6 0.00 0.00 0.00 57 1012.4
20260502161152 31 125 0.0 0.0 0.00 0.00 0.00 56 1012.3
20260502160650 32 132 6.4 4.8 0.00 0.00 0.00 58 1012.3
20260502160149 32 143 1.6 1.6 0.00 0.00 0.00 57 1012.5
20260502152103 31 103 0.0 0.0 0.00 0.00 0.00 58 1013.0
20260502151600 31 277 3.2 6.4 0.00 0.00 0.00 58 1012.6
20260502151057 30 109 0.0 1.6 0.00 0.00 0.00 58 1012.8
20260502150555 30 120 0.0 0.0 0.00 0.00 0.00 59 1012.7
20260502130440 27 118 3.2 3.2 0.00 0.00 0.00 79 1012.5
20260502123422 26 116 1.6 1.6 0.00 0.00 0.00 82 1012.5
20260502122919 26 121 1.6 1.6 0.00 0.00 0.00 83 1012.5
20260502122415 26 113 3.2 3.2 0.00 0.00 0.00 83 1012.5
20260502121914 25 91 0.0 1.6 0.00 0.00 0.00 84 1012.5
20260502121410 25 121 1.6 1.6 0.00 0.00 0.00 85 1012.5
20260502120908 25 124 1.6 1.6 0.00 0.00 0.00 86 1012.6
20260502120404 25 115 1.6 1.6 0.00 0.00 0.00 87 1012.7
20260502115901 25 117 0.0 0.0 0.00 0.00 0.00 87 1012.5
20260502115359 24 118 0.0 0.0 0.00 0.00 0.00 88 1012.5
20260502114854 24 118 1.6 1.6 0.00 0.00 0.00 88 1012.6
20260502114352 23 115 0.0 0.0 0.00 0.00 0.00 89 1012.4
20260502113849 23 115 0.0 0.0 0.00 0.00 0.00 89 1012.5
20260502113346 23 118 0.0 0.0 0.00 0.00 0.00 90 1012.5
20260502112844 23 110 0.0 0.0 0.00 0.00 0.00 89 1012.5
20260502112341 23 125 0.0 0.0 0.00 0.00 0.00 89 1012.7
20260502111839 22 115 0.0 0.0 0.00 0.00 0.00 89 1012.6
20260502111336 22 107 0.0 0.0 0.00 0.00 0.00 89 1012.6
20260502110834 22 111 0.0 3.2 0.00 0.00 0.00 89 1012.5
20260502110332 22 131 0.0 0.0 0.00 0.00 0.00 89 1012.6
20260502105829 22 131 0.0 0.0 0.00 0.00 0.00 89 1012.6
20260502105326 22 131 0.0 0.0 0.00 0.00 0.00 89 1012.7
20260502104823 22 137 0.0 0.0 0.00 0.00 0.00 89 1012.6
20260502104320 22 160 0.0 0.0 0.00 0.00 0.00 89 1012.4
20260502103818 22 160 0.0 0.0 0.00 0.00 0.00 89 1012.4
20260502103315 22 160 0.0 0.0 0.00 0.00 0.00 88 1012.3
20260502102812 22 160 0.0 0.0 0.00 0.00 0.00 88 1012.5
20260502102308 22 160 0.0 0.0 0.00 0.00 0.00 89 1012.5
20260502101806 22 160 0.0 0.0 0.00 0.00 0.00 88 1012.4
20260502101304 22 160 0.0 0.0 0.00 0.00 0.00 88 1012.4
20260502100802 22 160 0.0 0.0 0.00 0.00 0.00 88 1012.3
20260502100301 22 160 0.0 0.0 0.00 0.00 0.00 87 1012.4
20260502091235 22 160 0.0 0.0 0.00 0.00 0.00 86 1012.4
20260502090732 22 160 0.0 0.0 0.00 0.00 0.00 86 1012.4
20260502090229 22 160 0.0 0.0 0.00 0.00 0.00 86 1012.5